{"data":{"norad_id":53198,"epoch":"2026-05-25T03:38:50.896608Z","epoch_age_seconds":72579,"freshness":"FRESH","line1":"1 53198U 22084K   26145.15197797 -.00006071  00000+0 -41663-3 0  9994","line2":"2 53198  97.4449 205.1618 0001244 176.9225 183.2010 15.05691515211479","mean_motion":15.05691515,"eccentricity":0.0001244,"inclination_deg":97.4449,"raan_deg":205.1618,"arg_perigee_deg":176.9225,"mean_anomaly_deg":183.201,"bstar":-0.00041663,"rev_number":21147,"period_min":95.637119931568,"perigee_km":548.52203022916,"apogee_km":550.24559740764,"semimajor_km":6927.5208138184,"source":"CELESTRAK","updated_at":"2026-05-25T13:38:17.350125Z"}}